SCP
1 1 2 1 2 1 1 1 1 1 1 0 0 0 0 0 0 0 0 0 0 1 2 0 0 0 0 0 0 0 0 0 0 0 0 0 0 -0 0 -0 0 0 0
1 1 2 1 2 2 1 1 0 0 1 1 1 1 0 0 0 0 1 0 1 2 1 0 0 0 0 0 0 0 0 0 0 0 0 0 0 0 0 0 0 0 0
1 2 2 2 1 1 1 1 1 1 1 2 1 2 0 0 2 1 2 2 1 1 1 0 0 0 0 0 0 0 0 0 0 0 0 0 0 0 0 0 0 0 0
0 1 2 2 1 1 0 0 0 1 1 1 0 0 0 1 1 2 1 1 1 0 0 0 0 0 0 0 0 0 0 0 0 0 0 0 0 0 0 0 0 0 0
0 1 1 2 1 1 0 0 1 1 0 0 0 0 1 1 1 1 1 0 0 0 0 0 0 0 0 0 0 0 0 0 0 0 0 0 0 0 0 0 0 0 0
0 1 2 2 2 1 1 1 0 1 0 0 1 1 1 1 1 0 0 0 0 0 0 0 0 0 0 0 0 0 0 0 0 0 0 0 0 0 0 0 0 0 0
0 1 1 2 2 1 1 1 1 1 1 1 1 1 1 2 1 0 0 0 0 0 0 0 0 0 0 0 0 0 0 0 0 0 0 0 0 0 0 0 0 0 0
0 1 1 1 1 1 1 1 1 1 2 2 1 1 2 1 1 0 0 0 0 0 0 0 0 0 0 0 0 0 0 0 0 0 0 0 0 0 0 0 0 0 0
1 1 1 1 1 1 1 2 1 1 1 1 1 1 1 1 1 1 1 0 0 0 0 0 0 0 0 0 0 0 0 0 0 0 0 0 0 0 0 0 0 0 0
0 1 1 1 1 2 3 3 2 2 2 1 2 2 2 1 1 0 0 0 0 0 0 0 0 0 0 0 0 0 0 0 0 0 0 0 0 0 0 0 0 0 0
0 1 1 1 1 3 3 3 2 2 3 2 2 2 1 0 0 0 0 0 0 0 0 0 0 0 0 0 0 0 0 0 0 0 0 -0 0 0 0 0 0 0 0
0 1 1 1 2 2 3 3 4 3 1 1 0 0 0 0 0 0 0 0 0 0 0 0 0 0 0 0 0 0 0 0 0 0 0 0 0 0 0 0 0 0 0
0 1 2 3 4 4 3 2 1 0 0 0 0 0 0 0 0 0 0 0 0 0 0 0 0 0 0 0 0 0 0 0 0 0 0 0 0 0 0 0 0 0 0
1 1 1 4 3 2 0 0 0 0 0 0 0 0 0 0 0 0 0 0 0 0 0 0 0 0 0 0 0 0 0 0 0 0 0 0 0 0 0 0 0 0 0
1 1 3 1 0 0 0 0 0 0 0 0 0 0 0 0 0 0 0 0 0 0 0 0 0 0 0 0 0 0 0 0 0 0 0 0 0 0 0 0 0 0 0
1 2 0 0 0 0 0 0 0 0 0 0 0 0 0 0 0 0 0 0 0 0 0 0 0 0 0 0 0 0 0 0 0 0 0 0 0 0 0 0 0 0 0
0 0 0 0 0 0 0 0 0 0 0 0 0 0 0 0 0 0 0 0 0 0 0 0 0 0 0 0 0 0 0 0 0 0 0 0 0 0 0 0 0 0 0
0 0 0 0 0 0 0 0 0 0 0 0 0 0 0 0 0 0 0 0 0 0 0 0 0 0 0 0 0 0 0 0 0 0 0 0 0 0 0 0 0 0 0
0 0 0 0 0 0 0 0 0 0 0 0 0 0 0 0 0 0 0 0 0 0 0 0 0 0 0 0 0 0 0 0 0 0 0 0 0 0 0 0 0 0 0
0 0 0 0 0 0 0 0 0 0 0 0 0 0 0 0 0 0 0 0 0 0 0 0 0 0 0 0 0 0 0 0 0 0 0 0 0 0 0 0 0 0 0
0 0 0 0 0 0 0 0 0 0 0 0 0 0 0 0 0 0 0 0 0 0 0 0 0 0 0 0 0 0 0 0 0 0 0 0 0 0 0 0 0 0 0
0 0 0 0 0 0 0 0 0 0 0 0 0 0 0 0 0 0 0 0 0 0 0 0 0 0 0 0 0 0 0 0 0 0 0 0 0 0 0 0 0 0 0
0 0 0 0 0 0 0 0 0 0 0 0 0 0 0 0 0 0 0 0 0 0 0 0 0 0 0 0 0 0 0 0 0 0 0 0 0 0 0 0 0 0 0
0 0 0 0 0 0 0 0 0 0 0 0 0 0 0 0 0 0 0 0 0 0 0 0 0 0 0 0 0 0 0 -0 -0 -0 0 0 0 0 0 0 0 -0 0
0 0 0 0 0 0 0 0 0 0 0 0 0 0 0 0 0 0 0 0 0 0 0 0 0 0 0 0 -0 0 0 -0 -0 -0 0 0 0 0 0 0 0 0 0
0 0 0 0 0 0 0 0 0 0 0 0 0 0 0 0 0 0 0 0 0 0 0 0 0 0 0 -0 -0 -0 -0 0 0 -0 0 0 0 0 0 0 0 0 0
Wind_Speed_500mb
44 52 56 60 56 55 58 61 64 72 64 50 45 42 39 37 33 31 30 30 27 33 44 49 42 32 27 32 28 22 17 12 11 22 36 36 36 43 31 32 41 34 34
47 53 57 62 59 60 57 60 64 63 60 60 56 50 34 34 26 26 33 28 39 44 47 43 30 32 33 30 27 28 31 29 27 38 35 35 44 16 34 39 33 28 48
54 55 60 62 58 58 58 57 61 59 58 59 49 41 44 32 44 46 44 42 43 46 45 38 40 39 30 34 34 31 16 18 18 18 19 10 10 41 9 35 23 52 37
58 55 61 62 59 56 52 50 49 54 58 51 47 49 39 42 36 41 47 47 44 45 44 43 41 36 31 26 25 17 13 9 13 22 17 16 23 17 33 26 43 34 53
63 58 61 62 57 54 51 49 51 49 50 50 38 38 39 35 36 40 39 44 46 42 36 35 31 25 27 28 24 24 15 10 18 24 22 23 22 27 40 52 56 52 43
67 57 57 58 57 53 50 50 53 53 50 44 45 42 39 37 29 31 37 34 29 28 31 28 25 23 27 27 22 11 13 18 25 31 32 23 25 28 32 42 50 49 45
68 61 61 63 59 58 53 49 50 51 49 45 45 44 40 35 29 33 33 33 34 36 31 35 34 36 28 15 13 11 15 23 29 34 33 30 24 25 31 34 46 47 44
69 63 63 65 62 57 54 48 49 56 58 45 46 40 38 30 28 23 27 26 29 34 40 35 30 25 20 13 5 16 18 30 32 35 35 31 26 23 26 32 39 47 42
67 64 62 64 60 56 51 47 47 44 42 41 36 34 35 27 28 29 31 27 32 34 38 35 25 18 10 0 11 20 25 30 36 35 32 30 23 23 26 26 31 37 49
66 62 62 58 56 54 50 44 42 40 36 33 30 29 32 24 34 34 27 30 27 40 38 27 23 17 7 4 15 21 33 33 30 29 34 28 22 26 24 28 29 31 39
61 62 62 56 55 51 46 43 41 38 38 35 37 27 32 35 30 28 29 32 32 38 31 25 20 14 3 14 25 30 31 32 34 32 26 25 27 26 27 29 28 32 33
56 58 58 57 59 50 51 41 43 47 44 42 37 38 29 21 21 27 29 37 39 32 27 20 14 7 7 21 27 20 30 32 31 22 22 23 25 29 28 28 33 35 36
57 57 55 50 46 51 53 51 49 47 45 37 34 30 28 29 30 34 42 42 31 26 21 16 5 4 16 22 26 25 28 28 21 23 23 25 26 27 29 32 33 37 36
51 54 57 56 59 54 52 51 46 40 40 37 34 33 31 29 27 34 35 29 26 23 23 16 4 15 23 29 24 22 20 22 19 21 23 25 25 31 34 32 33 35 41
58 56 65 63 61 57 55 52 50 47 42 41 41 36 36 38 44 44 40 39 33 23 17 10 9 15 26 23 27 22 18 19 21 21 21 24 34 39 41 38 36 40 37
40 63 68 64 61 60 55 55 52 48 40 41 45 47 49 50 50 46 39 31 27 21 10 2 7 16 24 24 24 27 20 20 18 20 21 24 21 41 41 39 44 34 40
57 70 69 66 63 59 60 60 55 48 39 41 45 49 53 47 39 38 31 20 12 5 1 6 11 18 19 26 25 22 15 18 24 21 23 24 29 42 46 47 36 30 31
58 64 63 68 74 62 56 59 55 55 57 61 60 56 51 48 44 35 26 18 11 5 4 3 9 14 18 18 20 21 31 23 25 20 24 27 33 43 45 43 34 30 23
51 58 68 76 70 64 66 67 66 65 65 62 54 46 38 36 31 23 16 12 8 7 8 4 4 9 16 24 24 18 18 18 23 28 38 38 38 43 41 39 36 37 32
56 70 76 73 70 69 64 62 57 58 57 53 47 42 35 30 26 20 17 12 12 14 15 13 15 19 21 25 26 20 20 16 16 22 34 43 45 42 38 36 38 44 48
61 74 76 75 65 56 53 58 57 59 55 48 47 41 33 28 24 21 18 18 17 15 16 16 20 21 20 29 29 24 21 21 17 19 21 29 42 39 47 36 52 58 55
53 67 77 66 49 49 51 57 55 54 49 47 43 37 33 28 26 27 25 22 23 16 16 16 13 12 19 30 31 31 28 28 18 21 22 30 39 44 30 36 56 55 49
52 60 64 64 58 55 55 56 58 51 43 38 39 39 38 37 33 26 27 25 18 12 13 13 10 10 13 16 22 26 31 30 26 23 29 41 36 34 37 41 53 59 59
58 59 61 62 57 53 53 57 54 45 43 43 43 40 38 36 35 24 23 23 19 13 14 13 10 8 13 20 27 29 30 28 26 33 27 30 26 28 27 41 55 61 72
62 60 60 58 55 51 46 46 43 40 40 42 42 40 38 29 24 22 27 22 22 20 15 19 11 12 14 26 36 44 49 41 37 37 29 31 31 32 35 43 58 62 68
42 47 47 48 44 42 38 36 34 32 33 33 30 28 27 28 30 31 31 29 29 24 21 18 17 20 25 29 33 48 49 44 44 34 34 34 35 36 39 44 48 67 77
Wind_Direction_500mb
193 189 190 187 185 185 187 193 181 188 192 189 191 194 194 193 203 209 208 221 202 209 215 225 235 221 235 245 242 245 258 277 315 299 295 336 355 317 311 332 315 320 300
188 187 186 185 185 185 189 193 195 197 197 196 198 195 188 196 199 209 211 210 210 216 221 232 225 231 238 243 249 262 264 270 299 319 319 326 325 272 296 307 311 320 314
186 185 185 186 186 187 188 193 197 199 195 201 183 187 191 184 207 205 209 209 216 223 232 232 239 239 246 261 263 255 256 274 301 320 342 353 297 312 305 317 310 322 321
188 185 186 187 188 188 189 190 193 201 193 195 186 193 188 194 219 211 217 222 221 229 234 232 239 238 238 249 230 205 260 278 319 329 351 315 294 313 314 305 314 313 312
188 187 186 187 186 183 183 184 187 191 188 193 184 189 195 210 216 218 228 222 227 233 240 232 233 245 236 219 224 236 242 306 331 327 330 320 317 307 303 306 315 321 322
186 184 184 183 182 182 183 186 185 189 182 186 180 198 198 204 198 216 212 208 210 217 217 216 219 212 202 216 220 245 292 299 320 319 320 317 314 316 312 310 314 316 319
181 182 180 177 176 178 179 183 181 182 180 185 190 196 200 193 210 206 202 212 217 217 225 228 220 213 222 206 242 247 295 312 314 318 321 319 313 310 309 311 312 315 319
178 183 182 180 179 180 179 178 177 177 177 180 185 183 208 204 197 202 211 220 227 222 219 221 200 184 183 219 279 297 300 310 317 317 317 317 317 315 315 310 312 314 317
176 180 183 180 180 177 176 175 174 174 168 178 184 192 201 192 197 189 211 237 228 219 211 186 170 188 178 148 294 287 307 315 318 322 322 323 318 318 303 308 309 311 313
176 178 179 179 178 174 170 167 166 163 164 169 174 191 195 208 201 220 225 215 229 205 170 168 180 163 141 225 283 317 312 320 325 328 318 322 322 315 316 307 304 303 303
176 176 173 169 172 163 166 163 157 155 162 178 167 177 176 198 207 214 217 215 201 171 156 149 142 130 85 307 307 305 310 324 327 329 325 330 322 318 317 307 310 304 303
174 169 170 173 163 161 153 156 162 153 168 182 183 184 194 196 190 198 190 165 155 146 146 131 122 119 284 307 299 316 313 322 331 325 323 323 324 320 326 313 309 311 309
167 162 155 156 142 149 144 156 168 174 173 171 168 159 160 174 179 179 170 158 139 118 112 116 159 302 294 307 312 317 319 329 330 320 325 327 326 323 313 318 319 313 305
152 150 156 132 125 138 153 163 153 151 143 149 151 152 158 168 172 162 152 150 143 143 134 141 215 276 283 282 296 308 321 313 317 324 332 326 324 320 321 323 322 311 311
145 150 121 134 141 145 151 150 143 140 142 143 146 151 156 157 150 148 147 148 147 141 139 155 236 265 284 308 313 315 314 324 332 334 331 322 333 323 329 321 313 316 315
152 123 135 138 143 147 143 140 139 141 146 149 155 154 149 148 148 142 144 148 146 148 134 161 292 302 316 321 332 340 342 326 336 336 329 330 330 298 303 300 306 321 322
110 124 132 138 143 142 140 139 138 138 144 148 150 149 149 145 143 143 138 137 136 125 332 316 313 307 336 347 347 346 337 350 335 346 321 333 323 325 327 328 336 330 319
122 128 134 138 136 141 138 135 136 137 137 136 140 143 145 143 142 143 148 150 153 152 97 13 24 317 1 10 8 12 15 343 342 343 339 344 330 328 332 334 339 343 348
131 136 142 140 138 142 144 141 142 141 137 135 133 133 133 133 132 134 128 118 107 107 98 58 71 354 30 25 28 42 19 333 342 331 335 346 342 341 342 347 344 346 337
139 142 145 147 144 141 143 132 125 127 126 126 126 130 132 134 129 122 107 98 91 100 92 77 61 36 15 21 25 24 7 6 6 343 334 336 333 343 349 355 351 344 336
140 145 144 143 140 137 132 127 130 132 131 135 137 138 138 139 130 123 112 97 107 99 85 75 48 8 19 358 3 4 16 9 13 345 336 334 339 8 10 3 345 344 339
139 142 139 129 127 130 135 131 134 136 137 136 134 133 128 122 117 105 106 105 95 95 89 82 63 26 4 355 358 12 13 17 24 348 344 350 9 17 0 357 339 345 352
140 144 140 134 132 137 138 139 135 136 136 136 128 121 113 106 100 100 94 93 95 91 89 77 59 32 4 5 357 5 16 28 25 19 360 1 11 10 0 342 349 6 7
139 140 133 128 128 134 136 132 133 133 135 130 124 117 112 103 107 103 105 107 104 80 78 71 61 30 9 21 37 36 26 30 23 24 8 357 11 350 356 354 10 17 16
131 133 131 130 130 133 129 130 131 135 133 127 125 125 129 130 121 107 98 97 125 133 128 97 76 66 41 50 50 50 53 48 37 32 11 16 10 7 360 356 7 13 8
114 119 118 118 119 122 124 123 122 119 117 117 117 115 111 108 109 103 97 97 98 97 106 104 88 62 63 62 64 55 51 47 38 29 22 15 13 9 6 4 1 15 14
Wind_Speed_850mb
44 52 56 60 56 55 58 61 64 72 64 50 45 42 39 37 33 31 30 30 27 33 44 49 42 32 27 32 28 22 17 12 11 22 36 36 36 43 31 32 41 34 34
47 53 57 62 59 60 57 60 64 63 60 60 56 50 34 34 26 26 33 28 39 44 47 43 30 32 33 30 27 28 31 29 27 38 35 35 44 16 34 39 33 28 48
54 55 60 62 58 58 58 57 61 59 58 59 49 41 44 32 44 46 44 42 43 46 45 38 40 39 30 34 34 31 16 18 18 18 19 10 10 41 9 35 23 52 37
58 55 61 62 59 56 52 50 49 54 58 51 47 49 39 42 36 41 47 47 44 45 44 43 41 36 31 26 25 17 13 9 13 22 17 16 23 17 33 26 43 34 53
63 58 61 62 57 54 51 49 51 49 50 50 38 38 39 35 36 40 39 44 46 42 36 35 31 25 27 28 24 24 15 10 18 24 22 23 22 27 40 52 56 52 43
67 57 57 58 57 53 50 50 53 53 50 44 45 42 39 37 29 31 37 34 29 28 31 28 25 23 27 27 22 11 13 18 25 31 32 23 25 28 32 42 50 49 45
68 61 61 63 59 58 53 49 50 51 49 45 45 44 40 35 29 33 33 33 34 36 31 35 34 36 28 15 13 11 15 23 29 34 33 30 24 25 31 34 46 47 44
69 63 63 65 62 57 54 48 49 56 58 45 46 40 38 30 28 23 27 26 29 34 40 35 30 25 20 13 5 16 18 30 32 35 35 31 26 23 26 32 39 47 42
67 64 62 64 60 56 51 47 47 44 42 41 36 34 35 27 28 29 31 27 32 34 38 35 25 18 10 0 11 20 25 30 36 35 32 30 23 23 26 26 31 37 49
66 62 62 58 56 54 50 44 42 40 36 33 30 29 32 24 34 34 27 30 27 40 38 27 23 17 7 4 15 21 33 33 30 29 34 28 22 26 24 28 29 31 39
61 62 62 56 55 51 46 43 41 38 38 35 37 27 32 35 30 28 29 32 32 38 31 25 20 14 3 14 25 30 31 32 34 32 26 25 27 26 27 29 28 32 33
56 58 58 57 59 50 51 41 43 47 44 42 37 38 29 21 21 27 29 37 39 32 27 20 14 7 7 21 27 20 30 32 31 22 22 23 25 29 28 28 33 35 36
57 57 55 50 46 51 53 51 49 47 45 37 34 30 28 29 30 34 42 42 31 26 21 16 5 4 16 22 26 25 28 28 21 23 23 25 26 27 29 32 33 37 36
51 54 57 56 59 54 52 51 46 40 40 37 34 33 31 29 27 34 35 29 26 23 23 16 4 15 23 29 24 22 20 22 19 21 23 25 25 31 34 32 33 35 41
58 56 65 63 61 57 55 52 50 47 42 41 41 36 36 38 44 44 40 39 33 23 17 10 9 15 26 23 27 22 18 19 21 21 21 24 34 39 41 38 36 40 37
40 63 68 64 61 60 55 55 52 48 40 41 45 47 49 50 50 46 39 31 27 21 10 2 7 16 24 24 24 27 20 20 18 20 21 24 21 41 41 39 44 34 40
57 70 69 66 63 59 60 60 55 48 39 41 45 49 53 47 39 38 31 20 12 5 1 6 11 18 19 26 25 22 15 18 24 21 23 24 29 42 46 47 36 30 31
58 64 63 68 74 62 56 59 55 55 57 61 60 56 51 48 44 35 26 18 11 5 4 3 9 14 18 18 20 21 31 23 25 20 24 27 33 43 45 43 34 30 23
51 58 68 76 70 64 66 67 66 65 65 62 54 46 38 36 31 23 16 12 8 7 8 4 4 9 16 24 24 18 18 18 23 28 38 38 38 43 41 39 36 37 32
56 70 76 73 70 69 64 62 57 58 57 53 47 42 35 30 26 20 17 12 12 14 15 13 15 19 21 25 26 20 20 16 16 22 34 43 45 42 38 36 38 44 48
61 74 76 75 65 56 53 58 57 59 55 48 47 41 33 28 24 21 18 18 17 15 16 16 20 21 20 29 29 24 21 21 17 19 21 29 42 39 47 36 52 58 55
53 67 77 66 49 49 51 57 55 54 49 47 43 37 33 28 26 27 25 22 23 16 16 16 13 12 19 30 31 31 28 28 18 21 22 30 39 44 30 36 56 55 49
52 60 64 64 58 55 55 56 58 51 43 38 39 39 38 37 33 26 27 25 18 12 13 13 10 10 13 16 22 26 31 30 26 23 29 41 36 34 37 41 53 59 59
58 59 61 62 57 53 53 57 54 45 43 43 43 40 38 36 35 24 23 23 19 13 14 13 10 8 13 20 27 29 30 28 26 33 27 30 26 28 27 41 55 61 72
62 60 60 58 55 51 46 46 43 40 40 42 42 40 38 29 24 22 27 22 22 20 15 19 11 12 14 26 36 44 49 41 37 37 29 31 31 32 35 43 58 62 68
42 47 47 48 44 42 38 36 34 32 33 33 30 28 27 28 30 31 31 29 29 24 21 18 17 20 25 29 33 48 49 44 44 34 34 34 35 36 39 44 48 67 77
Wind_Direction_850mb
193 189 190 187 185 185 187 193 181 188 192 189 191 194 194 193 203 209 208 221 202 209 215 225 235 221 235 245 242 245 258 277 315 299 295 336 355 317 311 332 315 320 300
188 187 186 185 185 185 189 193 195 197 197 196 198 195 188 196 199 209 211 210 210 216 221 232 225 231 238 243 249 262 264 270 299 319 319 326 325 272 296 307 311 320 314
186 185 185 186 186 187 188 193 197 199 195 201 183 187 191 184 207 205 209 209 216 223 232 232 239 239 246 261 263 255 256 274 301 320 342 353 297 312 305 317 310 322 321
188 185 186 187 188 188 189 190 193 201 193 195 186 193 188 194 219 211 217 222 221 229 234 232 239 238 238 249 230 205 260 278 319 329 351 315 294 313 314 305 314 313 312
188 187 186 187 186 183 183 184 187 191 188 193 184 189 195 210 216 218 228 222 227 233 240 232 233 245 236 219 224 236 242 306 331 327 330 320 317 307 303 306 315 321 322
186 184 184 183 182 182 183 186 185 189 182 186 180 198 198 204 198 216 212 208 210 217 217 216 219 212 202 216 220 245 292 299 320 319 320 317 314 316 312 310 314 316 319
181 182 180 177 176 178 179 183 181 182 180 185 190 196 200 193 210 206 202 212 217 217 225 228 220 213 222 206 242 247 295 312 314 318 321 319 313 310 309 311 312 315 319
178 183 182 180 179 180 179 178 177 177 177 180 185 183 208 204 197 202 211 220 227 222 219 221 200 184 183 219 279 297 300 310 317 317 317 317 317 315 315 310 312 314 317
176 180 183 180 180 177 176 175 174 174 168 178 184 192 201 192 197 189 211 237 228 219 211 186 170 188 178 148 294 287 307 315 318 322 322 323 318 318 303 308 309 311 313
176 178 179 179 178 174 170 167 166 163 164 169 174 191 195 208 201 220 225 215 229 205 170 168 180 163 141 225 283 317 312 320 325 328 318 322 322 315 316 307 304 303 303
176 176 173 169 172 163 166 163 157 155 162 178 167 177 176 198 207 214 217 215 201 171 156 149 142 130 85 307 307 305 310 324 327 329 325 330 322 318 317 307 310 304 303
174 169 170 173 163 161 153 156 162 153 168 182 183 184 194 196 190 198 190 165 155 146 146 131 122 119 284 307 299 316 313 322 331 325 323 323 324 320 326 313 309 311 309
167 162 155 156 142 149 144 156 168 174 173 171 168 159 160 174 179 179 170 158 139 118 112 116 159 302 294 307 312 317 319 329 330 320 325 327 326 323 313 318 319 313 305
152 150 156 132 125 138 153 163 153 151 143 149 151 152 158 168 172 162 152 150 143 143 134 141 215 276 283 282 296 308 321 313 317 324 332 326 324 320 321 323 322 311 311
145 150 121 134 141 145 151 150 143 140 142 143 146 151 156 157 150 148 147 148 147 141 139 155 236 265 284 308 313 315 314 324 332 334 331 322 333 323 329 321 313 316 315
152 123 135 138 143 147 143 140 139 141 146 149 155 154 149 148 148 142 144 148 146 148 134 161 292 302 316 321 332 340 342 326 336 336 329 330 330 298 303 300 306 321 322
110 124 132 138 143 142 140 139 138 138 144 148 150 149 149 145 143 143 138 137 136 125 332 316 313 307 336 347 347 346 337 350 335 346 321 333 323 325 327 328 336 330 319
122 128 134 138 136 141 138 135 136 137 137 136 140 143 145 143 142 143 148 150 153 152 97 13 24 317 1 10 8 12 15 343 342 343 339 344 330 328 332 334 339 343 348
131 136 142 140 138 142 144 141 142 141 137 135 133 133 133 133 132 134 128 118 107 107 98 58 71 354 30 25 28 42 19 333 342 331 335 346 342 341 342 347 344 346 337
139 142 145 147 144 141 143 132 125 127 126 126 126 130 132 134 129 122 107 98 91 100 92 77 61 36 15 21 25 24 7 6 6 343 334 336 333 343 349 355 351 344 336
140 145 144 143 140 137 132 127 130 132 131 135 137 138 138 139 130 123 112 97 107 99 85 75 48 8 19 358 3 4 16 9 13 345 336 334 339 8 10 3 345 344 339
139 142 139 129 127 130 135 131 134 136 137 136 134 133 128 122 117 105 106 105 95 95 89 82 63 26 4 355 358 12 13 17 24 348 344 350 9 17 0 357 339 345 352
140 144 140 134 132 137 138 139 135 136 136 136 128 121 113 106 100 100 94 93 95 91 89 77 59 32 4 5 357 5 16 28 25 19 360 1 11 10 0 342 349 6 7
139 140 133 128 128 134 136 132 133 133 135 130 124 117 112 103 107 103 105 107 104 80 78 71 61 30 9 21 37 36 26 30 23 24 8 357 11 350 356 354 10 17 16
131 133 131 130 130 133 129 130 131 135 133 127 125 125 129 130 121 107 98 97 125 133 128 97 76 66 41 50 50 50 53 48 37 32 11 16 10 7 360 356 7 13 8
114 119 118 118 119 122 124 123 122 119 117 117 117 115 111 108 109 103 97 97 98 97 106 104 88 62 63 62 64 55 51 47 38 29 22 15 13 9 6 4 1 15 14